Total_Precipitation_Accumulation
0.02 0.05 0.15 0.17 0.10 0.13 0.27 0.18 0.12 0.03 0.00 0.00 0.01 0.04 0.08 0.10 0.07 0.04 0.02 0.02 0.02 0.03 0.04 0.06 0.09 0.12 0.13 0.14 0.16 0.19 0.17 0.15 0.13 0.13 0.13 0.14 0.13 0.11 0.09 0.07 0.05 0.05 0.05 0.06
0.04 0.04 0.10 0.12 0.06 0.06 0.07 0.04 0.04 0.03 0.01 0.01 0.05 0.10 0.13 0.12 0.08 0.05 0.03 0.02 0.01 0.02 0.02 0.03 0.07 0.15 0.19 0.23 0.24 0.21 0.18 0.16 0.15 0.15 0.16 0.17 0.14 0.10 0.08 0.08 0.08 0.08 0.09 0.10
0.07 0.02 0.09 0.10 0.06 0.05 0.03 0.02 0.03 0.04 0.03 0.04 0.11 0.17 0.19 0.13 0.07 0.04 0.02 0.01 0.01 0.01 0.01 0.04 0.11 0.24 0.37 0.43 0.38 0.31 0.27 0.22 0.20 0.20 0.20 0.20 0.19 0.18 0.17 0.16 0.17 0.17 0.16 0.16
0.10 0.07 0.16 0.11 0.05 0.03 0.01 0.02 0.04 0.04 0.04 0.06 0.09 0.14 0.14 0.08 0.03 0.02 0.01 0.01 0.01 0.01 0.03 0.06 0.14 0.27 0.37 0.44 0.48 0.43 0.39 0.37 0.33 0.34 0.36 0.38 0.40 0.39 0.37 0.36 0.36 0.35 0.35 0.34
0.14 0.11 0.06 0.02 0.02 0.02 0.02 0.02 0.03 0.03 0.02 0.02 0.04 0.08 0.09 0.05 0.03 0.02 0.01 0.01 0.01 0.01 0.03 0.07 0.14 0.22 0.32 0.41 0.46 0.51 0.57 0.61 0.60 0.59 0.62 0.66 0.70 0.72 0.68 0.64 0.62 0.62 0.61 0.59
0.15 0.10 0.02 0.01 0.00 0.01 0.02 0.03 0.01 0.02 0.01 0.01 0.02 0.06 0.08 0.07 0.05 0.04 0.03 0.03 0.03 0.03 0.05 0.10 0.17 0.28 0.45 0.56 0.62 0.64 0.71 0.76 0.73 0.72 0.72 0.73 0.74 0.73 0.70 0.63 0.60 0.57 0.55 0.50
0.12 0.08 0.00 0.00 0.00 0.00 0.01 0.02 0.01 0.01 0.02 0.02 0.03 0.04 0.04 0.06 0.08 0.09 0.09 0.10 0.12 0.14 0.18 0.25 0.34 0.47 0.70 0.81 0.77 0.71 0.69 0.66 0.59 0.56 0.51 0.48 0.45 0.43 0.40 0.36 0.33 0.29 0.26 0.22
0.04 0.04 0.00 0.00 0.00 0.00 0.00 0.00 0.00 0.01 0.03 0.04 0.03 0.03 0.03 0.04 0.06 0.10 0.14 0.15 0.18 0.23 0.30 0.36 0.39 0.46 0.56 0.58 0.53 0.48 0.42 0.35 0.29 0.27 0.24 0.22 0.20 0.19 0.17 0.15 0.13 0.10 0.07 0.04
0.00 0.00 0.00 0.00 0.00 0.00 0.00 0.00 0.00 0.01 0.03 0.02 0.02 0.02 0.02 0.03 0.03 0.04 0.07 0.07 0.08 0.10 0.12 0.14 0.16 0.18 0.20 0.18 0.15 0.13 0.12 0.09 0.07 0.06 0.06 0.05 0.05 0.04 0.03 0.02 0.01 0.01 0.00 0.00
0.00 0.00 0.00 0.00 0.00 0.00 0.00 0.01 0.01 0.02 0.02 0.02 0.02 0.01 0.01 0.02 0.02 0.02 0.02 0.02 0.03 0.03 0.02 0.02 0.02 0.02 0.02 0.02 0.02 0.01 0.01 0.01 0.01 0.00 0.00 0.00 0.00 0.00 0.00 0.00 0.00 0.00 0.00 0.00
0.01 0.00 0.00 0.00 0.00 0.00 0.00 0.00 0.01 0.01 0.01 0.01 0.01 0.01 0.02 0.02 0.02 0.02 0.01 0.01 0.01 0.01 0.00 0.00 0.00 0.00 0.00 0.00 0.00 0.00 0.00 0.00 0.00 0.00 0.00 0.00 0.00 0.00 0.00 0.00 0.00 0.00 0.00 0.00
0.02 0.00 0.00 0.00 0.00 0.00 0.00 0.01 0.00 0.00 0.00 0.01 0.00 0.01 0.01 0.01 0.01 0.01 0.01 0.01 0.02 0.01 0.01 0.00 0.00 0.00 0.00 0.00 0.00 0.00 0.00 0.00 0.00 0.00 0.00 0.00 0.00 0.00 0.00 0.00 0.00 0.00 0.00 0.00
0.01 0.01 0.01 0.00 0.00 0.00 0.00 0.00 0.00 0.00 0.00 0.00 0.00 0.01 0.01 0.00 0.01 0.01 0.01 0.01 0.01 0.01 0.01 0.01 0.00 0.00 0.00 0.00 0.00 0.00 0.00 0.00 0.00 0.00 0.00 0.00 0.00 0.00 0.00 0.00 0.00 0.00 0.00 0.00
0.02 0.01 0.01 0.01 0.01 0.01 0.00 0.00 0.00 0.00 0.00 0.00 0.00 0.00 0.00 0.00 0.00 0.01 0.01 0.01 0.01 0.01 0.00 0.00 0.01 0.01 0.01 0.01 0.00 0.00 0.00 0.00 0.00 0.00 0.00 0.00 0.00 0.00 0.00 0.00 0.00 0.00 0.00 0.00
0.03 0.02 0.03 0.03 0.02 0.01 0.01 0.01 0.00 0.00 0.00 0.00 0.00 0.00 0.00 0.00 0.01 0.01 0.01 0.01 0.01 0.01 0.01 0.01 0.01 0.01 0.01 0.01 0.01 0.01 0.01 0.01 0.01 0.01 0.01 0.00 0.00 0.00 0.00 0.00 0.00 0.00 0.00 0.00
0.08 0.06 0.05 0.05 0.05 0.04 0.03 0.02 0.01 0.01 0.00 0.00 0.00 0.00 0.00 0.00 0.00 0.00 0.01 0.01 0.01 0.02 0.02 0.01 0.01 0.02 0.02 0.03 0.03 0.02 0.02 0.02 0.02 0.01 0.01 0.01 0.01 0.01 0.00 0.00 0.00 0.00 0.00 0.00
0.17 0.16 0.13 0.10 0.09 0.09 0.08 0.06 0.05 0.03 0.02 0.02 0.01 0.01 0.01 0.00 0.00 0.00 0.01 0.01 0.01 0.02 0.02 0.02 0.02 0.02 0.02 0.03 0.04 0.04 0.04 0.04 0.05 0.03 0.02 0.01 0.01 0.01 0.00 0.00 0.00 0.00 0.00 0.00
0.18 0.17 0.16 0.15 0.14 0.12 0.12 0.11 0.10 0.08 0.06 0.04 0.04 0.03 0.02 0.02 0.01 0.01 0.01 0.01 0.01 0.01 0.01 0.01 0.01 0.02 0.02 0.03 0.03 0.04 0.04 0.04 0.05 0.04 0.04 0.03 0.02 0.02 0.01 0.01 0.00 0.00 0.00 0.00
0.17 0.16 0.15 0.14 0.14 0.13 0.13 0.13 0.11 0.10 0.07 0.05 0.05 0.04 0.03 0.02 0.02 0.01 0.01 0.01 0.01 0.01 0.01 0.01 0.03 0.03 0.02 0.03 0.04 0.04 0.04 0.05 0.05 0.05 0.05 0.04 0.03 0.02 0.02 0.01 0.01 0.01 0.01 0.01
0.15 0.16 0.15 0.14 0.13 0.12 0.12 0.11 0.10 0.08 0.07 0.06 0.05 0.04 0.04 0.03 0.02 0.02 0.02 0.02 0.02 0.02 0.02 0.02 0.02 0.02 0.03 0.03 0.05 0.04 0.04 0.05 0.06 0.06 0.05 0.05 0.04 0.03 0.03 0.02 0.02 0.01 0.01 0.01
0.18 0.17 0.18 0.19 0.19 0.18 0.16 0.15 0.13 0.12 0.10 0.09 0.09 0.08 0.06 0.04 0.02 0.02 0.02 0.02 0.02 0.02 0.02 0.03 0.03 0.03 0.04 0.05 0.07 0.05 0.05 0.06 0.07 0.07 0.06 0.06 0.05 0.04 0.04 0.03 0.02 0.01 0.01 0.01
0.17 0.18 0.19 0.20 0.22 0.23 0.22 0.19 0.16 0.15 0.14 0.14 0.13 0.10 0.07 0.05 0.04 0.03 0.02 0.02 0.02 0.03 0.03 0.03 0.04 0.05 0.07 0.08 0.07 0.06 0.07 0.08 0.08 0.08 0.08 0.07 0.06 0.05 0.04 0.03 0.02 0.02 0.01 0.01
0.08 0.10 0.12 0.13 0.14 0.15 0.15 0.15 0.14 0.14 0.16 0.17 0.15 0.12 0.10 0.08 0.06 0.05 0.05 0.04 0.03 0.03 0.03 0.03 0.05 0.06 0.07 0.06 0.06 0.07 0.08 0.09 0.09 0.08 0.07 0.06 0.05 0.04 0.03 0.03 0.02 0.01 0.01 0.00
0.06 0.06 0.06 0.07 0.07 0.08 0.09 0.09 0.10 0.12 0.13 0.13 0.12 0.10 0.08 0.08 0.08 0.07 0.06 0.06 0.05 0.05 0.04 0.05 0.05 0.05 0.05 0.06 0.06 0.07 0.07 0.08 0.07 0.07 0.06 0.05 0.04 0.03 0.03 0.02 0.01 0.01 0.01 0.00
0.05 0.04 0.03 0.03 0.04 0.04 0.04 0.05 0.06 0.07 0.08 0.09 0.09 0.08 0.07 0.08 0.08 0.08 0.06 0.05 0.05 0.05 0.04 0.05 0.04 0.04 0.04 0.05 0.05 0.05 0.05 0.05 0.05 0.05 0.04 0.03 0.03 0.02 0.01 0.01 0.01 0.01 0.00 0.00
0.05 0.05 0.04 0.03 0.02 0.02 0.02 0.02 0.02 0.03 0.04 0.06 0.07 0.07 0.07 0.08 0.07 0.06 0.05 0.05 0.05 0.05 0.05 0.04 0.04 0.04 0.04 0.04 0.04 0.04 0.03 0.03 0.03 0.03 0.02 0.02 0.02 0.01 0.01 0.01 0.01 0.00 0.00 0.00
0.04 0.04 0.03 0.03 0.02 0.02 0.02 0.01 0.01 0.01 0.02 0.02 0.03 0.04 0.05 0.06 0.07 0.07 0.07 0.06 0.06 0.05 0.05 0.04 0.04 0.04 0.04 0.03 0.03 0.03 0.03 0.02 0.02 0.02 0.02 0.01 0.01 0.01 0.01 0.01 0.01 0.01 0.00 0.00